Regional Weather Roundup
Issued by NWS

Home | Current Version | Previous Version | Graphics & Text | Print | Product List | Glossary On
Versions: 1 2 3 4 5 6 7 8 9 10 11 12 13 14 15 16 17 18 19 20 21 22 23 24 25 26 27 28 29 30 31 32 33 34 35 36 37 38 39 40 41 42 43 44 45 46 47 48 49 50
696
ASUS45 KBOU 110510
RWRCO

WEATHER ROUNDUP FOR COLORADO
NATIONAL WEATHER SERVICE DENVER/BOULDER CO
1000 PM MST SUN DEC 10 2017

NOTE: "FAIR" INDICATES FEW OR NO CLOUDS BELOW 12000 FEET WITH NO
SIGNIFICANT WEATHER AND/OR OBSTRUCTIONS TO VISIBILITY.

COZ001>005-013-030-031-110600-
...NORTHWEST COLORADO...

CITY           SKY/WX    TMP DP  RH WIND       PRES   REMARKS
CRAIG          FAIR      10   5  80 S3        30.53F
HAYDEN         FAIR      24  11  57 E16       30.53F WCI  11
MEEKER         FAIR      20   3  48 N3        30.54R
RABBIT EARS PA FAIR      23   0  36 W12G17    30.55F WCI  12
STEAMBOAT SPGS FAIR      18   9  69 CALM      30.54S
WALDEN         FAIR       9   0  66 SE9       30.51F WCI  -5
$$

COZ006>008-011-110600-
...WEST CENTRAL VALLEYS...

CITY           SKY/WX    TMP DP  RH WIND       PRES   REMARKS
GRAND JUNCTION FAIR      25   2  37 E6        30.53R WCI  18
MONTROSE       FAIR      20   0  41 S9        30.54S WCI   9
EAGLE          FAIR      14   7  73 CALM      30.63R
RIFLE          FAIR      20   2  45 SW5       30.56R WCI  13
DELTA          FAIR      28  -3  26 CALM      30.54R
NUCLA          FAIR      27  -9  20 E6        30.55R WCI  20
$$

COZ017>023-064>068-110600-
...SOUTHWEST COLORADO...

CITY           SKY/WX    TMP DP  RH WIND       PRES   REMARKS
DURANGO        FAIR      20   1  43 N6        30.49R WCI  12
CORTEZ         FAIR      11  -2  56 NE5       30.51R WCI   3
PAGOSA SPRINGS FAIR      22  -4  30 CALM      30.51R
TELLURIDE      FAIR      31 -11  16 SE7       30.56S WCI  25
WOLF CREEK PAS FAIR      30 -18  11 NW6       30.65S WCI  24
$$

COZ009-010-012-014-032>034-037-058>063-110600-
...CENTRAL COLORADO...

CITY           SKY/WX    TMP DP  RH WIND       PRES   REMARKS
ASPEN          FAIR      20   2  45 S7        30.54S WCI  11
BUENA VISTA    FAIR      32  -6  19 NW15G22   30.49S WCI  22
COPPER MTN     NOT AVBL
BERTHOUD PASS  FAIR      16   5  62 N10G23    30.58R WCI   3
COTTONWOOD PAS FAIR      39 -18   8 W10       30.52S
GUNNISON       FAIR      12  -1  56 CALM      30.58R
KREMMLING      FAIR       5   1  85 CALM      30.62R
LEADVILLE      FAIR      15  -9  33 CALM      30.54S
MONARCH PASS   FAIR      28 -15  14 W8        30.70R WCI  20
SALIDA         FAIR      32  -6  19 W7        30.57R WCI  25
SUNLIGHT       FAIR      28 -17  13 N3        30.63R
WILKERSON PASS FAIR      32 -15  12 N6        30.57S WCI  26
$$

COZ069>075-110600-
...SAN LUIS VALLEY/SANGRE DE CRISTO MOUNTAINS...

CITY           SKY/WX    TMP DP  RH WIND       PRES   REMARKS
ALAMOSA        FAIR      12  -5  46 W5        30.50R WCI   4
DEL NORTE      FAIR      22  -8  27 W8        30.51R WCI  12
LA VETA PASS   FAIR      28  -9  19 SW21        N/A  WCI  15
SAGUACHE       FAIR      30  -9  17 NW9       30.51R WCI  22
$$

COZ035-036-038>040-110600-
...NORTHERN COLORADO FRONT RANGE...

CITY           SKY/WX    TMP DP  RH WIND       PRES   REMARKS
DENVER INTL AP FAIR      39  -5  15 SW10      30.32R
DMNS CITY PARK NOT AVBL
AURORA         PTCLDY    36  -4  18 S12       30.34R
FRONT RANGE AP FAIR      44  -5  13 SW13      30.33S
ERIE MUNI ARPT FAIR      24   9  53 CALM      30.37R
BOULDER MUN AP FAIR      52   0  11 SW3       30.31R
CENTENNIAL     FAIR      37  -1  20 S6        30.34S
BROOMFIELD     FAIR      43  -2  15 W8        30.33R
FORT COLLINS   FAIR      30  14  51 S3        30.30F
LONGMONT       FAIR      29  10  45 CALM      30.33R
$$

COZ041-046-047-076>085-087-088-110600-
...PIKES PEAK/PALMER DIVIDE AND SOUTHERN FOOTHILLS...

CITY           SKY/WX    TMP DP  RH WIND       PRES   REMARKS
COLO. SPRINGS  FAIR      31  -2  24 N12       30.37S WCI  22
A. F. ACADEMY  FAIR      24  -5  27 N12       30.37S WCI  13
SCHRIEVER AFB  FAIR      39  -6  15 NW6       30.37S
CHEYENNE MTN   FAIR      47  -8   9 NW9       30.32S
ELLICOTT         N/A    N/A N/A N/A N3        30.35S
FALCON         FAIR      30  -6  21 W9        30.38S WCI  21
FORT CARSON    FAIR      32  -1  24 N14       30.35R WCI  22
LIMON          FAIR      27  -3  27 VRB5      30.33S WCI  22
MONUMENT HILL  FAIR      34  -6  18 W10       30.40S WCI  26
CANON CITY     FAIR      45  -2  14 W18       30.35R
WALSENBURG     FAIR      37  -6  15 W8        30.38R
TRINIDAD       FAIR      30   6  36 W10       30.36S WCI  21
$$

COZ042>045-048>051-090-091-110600-
...NORTHEAST COLORADO...

CITY           SKY/WX    TMP DP  RH WIND       PRES   REMARKS
GREELEY ARPT   FAIR      22   4  46 NW8       30.31F WCI  12
AKRON          FAIR      36  -3  19 W14       30.29S
BURLINGTON     FAIR      28   2  32 W10       30.29S WCI  19
WRAY           FAIR      32   3  29 W14       30.27S WCI  22
YUMA           FAIR      30   1  29 W12       30.28S WCI  21
STERLING       FAIR      23   5  46 S7        30.27F WCI  15
HOLYOKE        FAIR      45   5  19 NW16G22   30.25S
FORT MORGAN    FAIR      29   0  29 W10       30.31S WCI  20
$$

COZ086-089-092>099-110600-
...SOUTHEAST COLORADO...

CITY           SKY/WX    TMP DP  RH WIND       PRES   REMARKS
PUEBLO         FAIR      25   0  33 W8        30.33F WCI  16
LA JUNTA       FAIR      33   2  26 W12       30.32S WCI  24
LAMAR          FAIR      18  -2  41 SW8       30.28F WCI   8
SPRINGFIELD      N/A     28   4  35 W5        30.31F WCI  23
$$




USA.gov is the U.S. government's official web portal to all federal, state and local government web resources and services.